Tracking 19562 objects as of 24-Mar-2019
HD Live streaming from Space Station
objects crossing your sky now

FLOCK 2K 15

Track FLOCK 2K 15 now!
10-day predictions
FLOCK 2K 15 is classified as:


NORAD ID: 42890
Int'l Code: 2017-042BT
Perigee: 449.3 km
Apogee: 466.1 km
Inclination: 97.0 °
Period: 93.6 minutes
Semi major axis: 6828 km
RCS: Unknown
Launch date: July 14, 2017
Source: United States (US)
Launch site: TYURATAM MISSILE AND SPACE COMPLEX (TTMTR)
aabbcc
Your satellite tracking list
Your tracking list is empty




NASA's NSSDC Master Catalog

Two Line Element Set (TLE):
1 42890U 17042BT  19083.21082937  .00003449  00000-0  92588-4 0  9996
2 42890  96.9527 330.6127 0012341 155.9241 204.2585 15.38497485 94679
Source of the keplerian elements: AFSPC